DW9945 Weather Reports


time (UTC)temp
F
wind
direction
speed
knots
gust
knots
rain 1hr
in
rain 24hr
in
rain mn
in
humidity
%
barometer
mb
20260904194507 88 325 0.9 1.7 0.00 0.00 0.00 19 1017.6
20260904194006 88 333 1.7 2.6 0.00 0.00 0.00 19 1017.6
20260904193506 88 322 0.9 2.6 0.00 0.00 0.00 18 1017.5
20260904193007 88 295 1.7 2.6 0.00 0.00 0.00 18 1017.5
20260904192506 88 291 1.7 2.6 0.00 0.00 0.00 18 1017.6
20260904192007 87 291 0.9 2.6 0.00 0.00 0.00 18 1017.5
20260904191507 87 312 0.9 1.7 0.00 0.00 0.00 18 1017.4
20260904191006 88 312 0.9 2.6 0.00 0.00 0.00 18 1017.3
20260904190507 88 292 0.9 2.6 0.00 0.00 0.00 18 1017.1
20260904190008 88 295 1.7 2.6 0.00 0.00 0.00 18 1017.1
20260904185510 89 306 1.7 2.6 0.00 0.00 0.00 18 1017.1
20260904185007 91 301 1.7 2.6 0.00 0.00 0.00 17 1017.1
20260904184506 92 298 1.7 2.6 0.00 0.00 0.00 17 1017.1
20260904183506 93 255 0.0 0.0 0.00 0.00 0.00 17 1017.2
20260904183006 94 255 0.0 0.0 0.00 0.00 0.00 17 1017.1
20260904182507 95 255 0.9 1.7 0.00 0.00 0.00 17 1017.2
20260904182006 95 233 0.9 1.7 0.00 0.00 0.00 17 1017.3
20260904181006 96 191 1.7 2.6 0.00 0.00 0.00 16 1017.2
20260904180510 96 193 1.7 2.6 0.00 0.00 0.00 16 1017.1
20260904180006 96 195 2.6 4.3 0.00 0.00 0.00 16 1017.1
20260904175506 96 208 1.7 2.6 0.00 0.00 0.00 16 1017.1
20260904175006 97 202 0.9 1.7 0.00 0.00 0.00 16 1017.1
20260904174506 97 232 0.9 2.6 0.00 0.00 0.00 16 1017.1
20260904174007 97 233 0.9 2.6 0.00 0.00 0.00 16 1017.2
20260904173506 97 221 1.7 2.6 0.00 0.00 0.00 16 1017.2
20260904173011 97 200 0.9 2.6 0.00 0.00 0.00 16 1017.3
20260904172506 97 225 1.7 2.6 0.00 0.00 0.00 16 1017.2
20260904172006 97 220 1.7 2.6 0.00 0.00 0.00 16 1017.3
20260904171506 97 234 1.7 4.3 0.00 0.00 0.00 15 1017.2
20260904170506 97 209 0.0 2.6 0.00 0.00 0.00 15 1017.1
20260904170006 97 198 1.7 4.3 0.00 0.00 0.00 15 1017.1
20260904164506 98 200 2.6 6.1 0.00 0.00 0.00 15 1017.1
20260904164006 98 180 2.6 4.3 0.00 0.00 0.00 15 1017.1
20260904163505 98 216 2.6 5.2 0.00 0.00 0.00 15 1017.1
20260904163006 98 221 3.5 6.1 0.00 0.00 0.00 15 1017.1
20260904162505 98 228 4.3 6.1 0.00 0.00 0.00 15 1017.1
20260904162005 98 191 4.3 6.1 0.00 0.00 0.00 15 1017.2
20260904161506 98 193 4.3 7.8 0.00 0.00 0.00 15 1017.3
20260904161006 98 183 2.6 6.1 0.00 0.00 0.00 15 1017.2
20260904160506 99 192 2.6 6.1 0.00 0.00 0.00 15 1017.2
20260904160006 99 217 4.3 7.8 0.00 0.00 0.00 15 1017.3
20260904155505 99 220 1.7 6.1 0.00 0.00 0.00 14 1017.3
20260904155005 99 218 2.6 7.0 0.00 0.00 0.00 15 1017.4
20260904154506 99 172 4.3 7.0 0.00 0.00 0.00 15 1017.3
20260904154006 98 190 2.6 7.0 0.00 0.00 0.00 15 1017.3
20260904153006 98 193 3.5 6.1 0.00 0.00 0.00 15 1017.4
20260904152506 98 188 2.6 10.4 0.00 0.00 0.00 15 1017.4
20260904151506 99 232 4.3 7.0 0.00 0.00 0.00 14 1017.5
20260904151006 99 215 1.7 6.1 0.00 0.00 0.00 15 1017.5
20260904150506 99 224 4.3 8.7 0.00 0.00 0.00 14 1017.7
20260904150006 99 207 4.3 6.1 0.00 0.00 0.00 14 1017.6
20260904145506 98 200 3.5 8.7 0.00 0.00 0.00 14 1017.6
20260904145005 98 205 6.1 8.7 0.00 0.00 0.00 14 1017.7
20260904144505 98 217 5.2 11.3 0.00 0.00 0.00 14 1017.8
20260904144006 98 218 5.2 10.4 0.00 0.00 0.00 14 1017.7
20260904143506 98 209 4.3 10.4 0.00 0.00 0.00 14 1017.7
20260904143006 98 229 5.2 10.4 0.00 0.00 0.00 14 1017.7
20260904142505 99 212 2.6 10.4 0.00 0.00 0.00 13 1018.0
20260904142005 99 220 3.5 6.1 0.00 0.00 0.00 13 1018.1
20260904141506 99 185 2.6 7.8 0.00 0.00 0.00 14 1018.1
20260904141006 99 213 4.3 7.8 0.00 0.00 0.00 14 1018.1
20260904140506 99 206 3.5 6.1 0.00 0.00 0.00 14 1018.2
20260904140006 98 178 2.6 10.4 0.00 0.00 0.00 14 1018.4
20260904135505 98 279 0.0 2.6 0.00 0.00 0.00 14 1018.5
20260904135006 98 253 4.3 6.1 0.00 0.00 0.00 14 1018.6
20260904134005 98 242 5.2 10.4 0.00 0.00 0.00 15 1018.7
20260904133505 97 237 2.6 7.8 0.00 0.00 0.00 15 1018.7
20260904133006 97 200 3.5 7.0 0.00 0.00 0.00 15 1018.7
20260904132505 97 225 2.6 7.0 0.00 0.00 0.00 15 1018.7
20260904132005 97 220 3.5 7.8 0.00 0.00 0.00 15 1018.9
20260904131505 97 248 4.3 8.7 0.00 0.00 0.00 15 1019.0
20260904131005 97 197 5.2 10.4 0.00 0.00 0.00 15 1019.0
20260904130505 97 208 5.2 12.2 0.00 0.00 0.00 14 1019.1
20260904130006 96 236 2.6 7.0 0.00 0.00 0.00 15 1019.1
20260904125505 96 213 5.2 10.4 0.00 0.00 0.00 14 1019.3
20260904125005 96 245 4.3 7.8 0.00 0.00 0.00 14 1019.3
20260904124506 96 198 2.6 6.1 0.00 0.00 0.00 15 1019.4
20260904124006 96 209 1.7 7.0 0.00 0.00 0.00 15 1019.4